Location: La Trinit�
(48.1620°N, 3.4512°W)
Time: 08:27:31
(UTC+00:00)

Cosmos 1437 Rocket - Pass Details

Date: 08 May 2021
Orbit: 501 x 565 km, 81.2° (Epoch: 12 June)

Event Time Altitude Azimuth Distance (km) Brightness Sun altitude
Rises 20:26:12 0° 184° (S) 2,622 6.0 -7.7°
Reaches altitude 10° 20:28:19 10° 182° (S) 1,749 5.0 -8.0°
Maximum altitude 20:32:08 69° 99° (E) 570 2.7 -8.5°
Drops below altitude 10° 20:36:04 10° 16° (NNE) 1,803 5.8 -9.0°
Sets 20:38:16 0° 14° (NNE) 2,711 6.7 -9.3°
